Regional Weather Roundup
Issued by NWS

Home | Current Version | Previous Version | Text Only | Print | Product List | Glossary On
Versions: 1 2 3 4 5 6 7 8 9 10 11 12 13 14 15 16 17 18 19 20 21 22 23 24 25 26 27 28 29 30 31 32 33 34 35 36 37 38 39 40 41 42 43 44 45 46 47 48 49 50
000
ASUS42 KFFC 231303
RWRGA
WEATHER ROUNDUP FOR GEORGIA
NATIONAL WEATHER SERVICE PEACHTREE CITY GA
900 AM EDT WED JUL 23 2014

NOTE: "FAIR" INDICATES FEW OR NO CLOUDS BELOW 12,000 FEET WITH NO
SIGNIFICANT WEATHER AND/OR OBSTRUCTIONS TO VISIBILITY.

* = USE WITH CAUTION. THE STATIONS MARKED WITH AN ASTERISK MAY NOT
REPORT WEATHER SUCH AS PRECIPITATION, FOG, OR THUNDER AND ARE NOT
QUALITY CONTROLLED BY NWS.

THE REMARK "TC" DENOTES TEMPERATURE READING IN DEGREES CELSIUS.

GAZ001>058-231400-
NORTH GEORGIA

CITY           SKY/WX    TMP DP  RH WIND       PRES   REMARKS
ATLANTA        MOSUNNY   77  71  82 CALM      30.12S
ATHENS         MOSUNNY   78  72  81 CALM      30.13R
CHAMBLEE       CLOUDY    75  70  84 CALM      30.12S
PEACHTREE CITY SUNNY     75  71  87 CALM      30.12S
ROME           PTSUNNY   75  73  93 E5        30.11S
WEST ATLANTA   SUNNY     74  71  91 CALM      30.12R
GAINESVILLE    PTSUNNY   75  70  84 NE3       30.16S
CARTERSVILLE   CLOUDY    72  71  97 CALM      30.12S FOG


CITY           SKY/WX    TMP DP  RH WIND       PRES   REMARKS
DALTON*        CLOUDY    72  72 100 CALM      30.13R
LAWRENCEVILLE* PTSUNNY   77  66  69 CALM      30.13R
MARIETTA       PTSUNNY   74  72  92 VRB2      30.13R
KENNESAW*      PTSUNNY   73  72  94 CALM      30.13S
$$

GAZ059>098-102>109-231400-
CENTRAL GEORGIA

CITY           SKY/WX    TMP DP  RH WIND       PRES   REMARKS
AUGUSTA-BUSH   SUNNY     78  72  81 NW5       30.09R
AUGUSTA-DANIEL SUNNY     80  72  76 VRB3      30.11R
COLUMBUS       SUNNY     75  72  90 CALM      30.10R
MACON          SUNNY     75  74  96 CALM      30.10R
ROBINS AFB     SUNNY     76  73  90 CALM      30.10R


CITY           SKY/WX    TMP DP  RH WIND       PRES   REMARKS
LAGRANGE*      SUNNY     79  75  89 CALM      30.11R
SYLVANIA*      SUNNY     78  78 100 CALM      30.09S
MILLEDGEVILLE* SUNNY     61  61 100 CALM      30.10R
$$

GAZ099>101-110>166-231400-
SOUTH GEORGIA

CITY           SKY/WX    TMP DP  RH WIND       PRES   REMARKS
SAVANNAH       MOSUNNY   81  75  82 CALM      30.08S
VALDOSTA       SUNNY     83  73  72 CALM      30.09R
ALMA           CLOUDY    76  75  97 CALM      30.09S FOG
ST SIMONS      MOSUNNY   81  75  82 VRB5      30.08S
FT STEWART     SUNNY     80  75  84 CALM      30.08R
ALBANY         CLOUDY    75  74  96 CALM      30.11R FOG
HUNTER AFB     SUNNY     82  76  83 VRB2      30.06S
MOODY AFB      SUNNY     77  77 100 SE2       30.09R
BRUNSWICK      SUNNY     82  75  78 CALM      30.09S


CITY           SKY/WX    TMP DP  RH WIND       PRES   REMARKS
BAINBRIDGE*    MOSUNNY   79  77  94 CALM      30.10R
MOULTRIE*      SUNNY     75  75 100 W5        30.10S
VIDALIA*         N/A     79  77  94 S3        30.09S
WAYCROSS*      PTSUNNY   78  78  99 CALM      30.10R FOG
DOUGLAS*       CLOUDY    77  75  94 CALM      30.11R FOG
$$


USA.gov is the U.S. government's official web portal to all federal, state and local government web resources and services.